Roanoke, VA

12:36 PM EST on December 12, 2019 (GMT -0500)
Roanoke Regional-Woodrum

Weather History for KROA - October, 2019

Change the Weather History Date:

Saturday, October 19, 2019

  Actual Average Record
Temperature  
Mean Temperature 49 °F 57 °F  
Max Temperature 62 °F 68 °F 91 °F (1938)
Min Temperature 36 °F 45 °F 25 °F (1976)
Degree Days  
Heating Degree Days 16 9  
Month to date heating degree days 73 124  
Since 1 July heating degree days 74 173  
Cooling Degree Days 0 0  
Month to date cooling degree days 73 18  
Year to date cooling degree days 1757 1204  
Moisture  
Dew Point 40 °F    
Average Humidity 72    
Maximum Humidity 92    
Minimum Humidity 51    
Precipitation  
Precipitation 0.15 in 0.09 in 3.40 in (1968)
Month to date precipitation 1.75 1.72  
Year to date precipitation 33.81 33.74  
Snow  
Snow 0.00 in - - ()
Month to date snowfall 0.0  
Since 1 July snowfall T  
Since 1 September snowfall 0.0  
Snow Depth 0.00 in    
Sea Level Pressure  
Sea Level Pressure 30.08 in    
Wind  
Wind Speed 4 mph (SE)    
Max Wind Speed 13 mph    
Max Gust Speed 16 mph    
Visibility 10 miles    
Events Rain    
T = Trace of Precipitation, MM = Missing Value Source: NWS Daily Summary

Daily Weather History Graph

Daily Weather History Graph

Search for Another Location

Airport or City:

Astronomy

Oct. 19, 2019 Rise Set
Actual Time 7:31 AM EDT 6:37 PM EDT
Civil Twilight 7:05 AM EDT 7:04 PM EDT
Nautical Twilight 6:34 AM EDT 7:34 PM EDT
Astronomical Twilight 6:04 AM EDT 8:04 PM EDT
Moon 10:50 PM EDT (10/19) 12:56 PM EDT (10/19)
Length of Visible Light 11h 59m
Length of Day
11h 06m
Waning Gibbous, 70% of the Moon is Illuminated
Oct 19
Waning Gibbous
Oct 21
Last Quarter
Oct 27
New
Nov 4
First Quarter
Nov 12
Full

Hourly Weather History & Observations

Time (EDT) Temp. Windchill Dew Point Humidity Pressure Visibility Wind Dir Wind Speed Gust Speed Precip Events Conditions
12:54 AM 44.1 °F - 37.9 °F 79% 30.07 in 10.0 mi Calm Calm - N/A   Clear
1:54 AM 42.1 °F - 37.9 °F 85% 30.08 in 10.0 mi Calm Calm - N/A   Clear
2:54 AM 39.9 °F - 37.0 °F 89% 30.09 in 10.0 mi Calm Calm - N/A   Clear
3:54 AM 39.9 °F - 36.0 °F 86% 30.10 in 10.0 mi Calm Calm - N/A   Clear
4:54 AM 37.9 °F - 35.1 °F 89% 30.10 in 10.0 mi Calm Calm - N/A   Clear
5:54 AM 39.9 °F - 37.0 °F 89% 30.09 in 10.0 mi Calm Calm - N/A   Clear
6:54 AM 37.0 °F 34.5 °F 35.1 °F 93% 30.12 in 10.0 mi West 3.5 mph - N/A   Clear
7:54 AM 37.9 °F - 35.1 °F 89% 30.12 in 10.0 mi Calm Calm - N/A   Clear
8:54 AM 42.1 °F - 39.0 °F 89% 30.14 in 9.0 mi Calm Calm - N/A   Clear
9:54 AM 46.0 °F - 39.0 °F 76% 30.15 in 10.0 mi Calm Calm - N/A   Clear
10:54 AM 50.0 °F - 39.0 °F 66% 30.16 in 10.0 mi Calm Calm - N/A   Clear
11:54 AM 55.0 °F - 39.9 °F 57% 30.14 in 10.0 mi Calm Calm - N/A   Clear
12:54 PM 57.0 °F - 39.9 °F 53% 30.12 in 10.0 mi SSE 4.6 mph - N/A   Mostly Cloudy
1:54 PM 59.0 °F - 42.1 °F 53% 30.08 in 10.0 mi Variable 6.9 mph - N/A   Mostly Cloudy
2:54 PM 60.1 °F - 42.1 °F 51% 30.06 in 10.0 mi SSE 10.4 mph - N/A   Overcast
3:54 PM 61.0 °F - 42.1 °F 50% 30.04 in 10.0 mi SSE 6.9 mph - N/A   Mostly Cloudy
4:54 PM 60.1 °F - 42.1 °F 51% 30.04 in 10.0 mi SE 9.2 mph - N/A   Overcast
5:54 PM 59.0 °F - 42.1 °F 53% 30.04 in 10.0 mi SE 9.2 mph - N/A   Overcast
6:54 PM 57.9 °F - 43.0 °F 58% 30.03 in 10.0 mi SE 5.8 mph - N/A   Overcast
7:54 PM 57.0 °F - 42.1 °F 57% 30.02 in 10.0 mi ESE 5.8 mph - N/A   Overcast
8:54 PM 55.9 °F - 42.1 °F 60% 30.02 in 10.0 mi SSE 4.6 mph - N/A   Overcast
9:54 PM 55.9 °F - 45.0 °F 67% 30.03 in 10.0 mi Calm Calm - N/A   Overcast
10:54 PM 53.1 °F - 48.9 °F 86% 30.03 in 5.0 mi NNW 3.5 mph - 0.02 in Rain Rain
11:54 PM 52.0 °F - 48.9 °F 89% 30.00 in 9.0 mi NNE 8.1 mph - 0.09 in Rain Light Rain